Location: Tierz
(42.1336°N, 0.3549°W)
Time: 12:11:47
(UTC+00:00)

Cosmos 2315 Rocket - Pass Details

Date: 29 October 2020
Orbit: 967 x 1001 km, 82.9° (Epoch: 30 November)

Event Time Altitude Azimuth Distance (km) Brightness Sun altitude
Rises 19:00:22 0° 181° (S) 3,650 7.0 -23.1°
Reaches altitude 10° 19:02:52 10° 180° (S) 2,704 6.3 -23.6°
Maximum altitude 19:09:03 79° 95° (E) 990 3.8 -24.7°
Drops below altitude 10° 19:15:15 10° 10° (N) 2,716 6.3 -25.9°
Sets 19:17:46 0° 9° (N) 3,668 7.0 -26.3°
